TCA7760 SVBM-SVMI

Flight info

Callsign TCA7760
Flight time 0h 30m
Altitude 23000
Route ATEXA1 KOLEG UW5 PBL ALDAK1
Aircraft C750/M-SBDE3FGHRWXY/S

Departure

Time 2026-05-07 23:56
Airport Jacinto Lara International Airport (SVBM)

Arrival

Time 2026-05-08 00:26
Airport Maiquetía Simón Bolívar International Airport (SVMI)
Time Latitude Longitude Altitude Speed Heading
2026-05-07 23:52 10.04109 -69.36797 2035 ft 12 kts 266°
2026-05-07 23:52 10.04101 -69.36874 2041 ft 10 kts 262°
2026-05-07 23:52 10.04090 -69.36937 2036 ft 8 kts 261°
2026-05-07 23:52 10.04079 -69.37009 2037 ft 12 kts 264°
2026-05-07 23:53 10.04083 -69.37090 2037 ft 10 kts 269°
2026-05-07 23:53 10.04066 -69.37094 2037 ft 1 kts 120°
2026-05-07 23:53 10.04068 -69.37085 2037 ft 2 kts 79°
2026-05-07 23:53 10.04068 -69.37082 2037 ft 0 kts 79°
2026-05-07 23:55 10.04069 -69.37080 2037 ft 6 kts 79°
2026-05-07 23:55 10.04133 -69.36673 2038 ft 115 kts 81°
2026-05-07 23:55 10.04314 -69.35701 2216 ft 155 kts 79°
2026-05-07 23:56 10.04516 -69.34587 2940 ft 162 kts 82°
2026-05-07 23:56 10.04730 -69.33464 3766 ft 161 kts 79°
2026-05-07 23:56 10.04934 -69.32346 4583 ft 162 kts 81°
2026-05-07 23:56 10.05147 -69.31146 5061 ft 184 kts 81°
2026-05-07 23:57 10.05389 -69.29778 5438 ft 210 kts 81°
2026-05-07 23:57 10.05659 -69.28235 5664 ft 234 kts 85°
2026-05-07 23:57 10.05707 -69.26481 6010 ft 258 kts 87°
2026-05-07 23:57 10.05955 -69.24690 7088 ft 256 kts 82°
2026-05-07 23:58 10.06167 -69.22886 8019 ft 262 kts 91°
2026-05-07 23:58 10.05927 -69.21045 9025 ft 266 kts 96°
2026-05-07 23:58 10.06094 -69.19167 9996 ft 271 kts 76°
2026-05-07 23:58 10.06909 -69.17470 10925 ft 274 kts 56°
2026-05-07 23:59 10.08277 -69.16106 11820 ft 279 kts 40°
2026-05-07 23:59 10.09862 -69.14952 12694 ft 282 kts 38°
2026-05-07 23:59 10.11035 -69.13379 13461 ft 285 kts 70°
2026-05-07 23:59 10.11203 -69.11337 13886 ft 307 kts 98°
2026-05-08 00:00 10.10274 -69.09275 13931 ft 342 kts 126°
2026-05-08 00:00 10.08337 -69.07822 14550 ft 349 kts 149°
2026-05-08 00:00 10.06495 -69.06244 15149 ft 350 kts 125°
2026-05-08 00:00 10.05543 -69.03998 15819 ft 349 kts 99°
2026-05-08 00:01 10.05684 -69.01547 16498 ft 352 kts 73°
2026-05-08 00:01 10.06373 -69.00061 16960 ft 354 kts 57°
2026-05-08 00:01 10.08166 -68.98348 17671 ft 361 kts 32°
2026-05-08 00:01 10.10583 -68.97448 17757 ft 386 kts 10°
2026-05-08 00:02 10.13287 -68.97676 18331 ft 395 kts 345°
2026-05-08 00:02 10.15865 -68.98634 18924 ft 397 kts 347°
2026-05-08 00:02 10.18614 -68.98679 19525 ft 399 kts 11°
2026-05-08 00:02 10.21147 -68.97552 20179 ft 402 kts 34°
2026-05-08 00:03 10.23037 -68.95459 20799 ft 409 kts 58°
2026-05-08 00:03 10.24067 -68.92744 21420 ft 414 kts 73°
2026-05-08 00:03 10.25230 -68.90062 21889 ft 419 kts 54°
2026-05-08 00:03 10.26931 -68.87654 22432 ft 425 kts 60°
2026-05-08 00:04 10.27778 -68.84778 23030 ft 433 kts 83°
2026-05-08 00:04 10.27524 -68.81708 23403 ft 447 kts 103°
2026-05-08 00:04 10.26355 -68.78719 23437 ft 465 kts 116°
2026-05-08 00:04 10.24761 -68.75787 23441 ft 482 kts 120°
2026-05-08 00:05 10.22987 -68.72835 23438 ft 497 kts 122°
2026-05-08 00:05 10.21152 -68.69836 23410 ft 504 kts 120°
2026-05-08 00:05 10.19973 -68.66532 23383 ft 506 kts 101°
2026-05-08 00:05 10.19912 -68.62966 23381 ft 507 kts 81°
2026-05-08 00:06 10.20990 -68.59586 23394 ft 505 kts 62°
2026-05-08 00:06 10.22940 -68.56636 23424 ft 504 kts 51°
2026-05-08 00:06 10.25219 -68.53927 23434 ft 504 kts 47°
2026-05-08 00:06 10.27542 -68.51272 23435 ft 505 kts 47°
2026-05-08 00:07 10.29811 -68.48523 23429 ft 507 kts 50°
2026-05-08 00:07 10.31919 -68.45652 23428 ft 508 kts 54°
2026-05-08 00:07 10.33752 -68.42578 23405 ft 510 kts 62°
2026-05-08 00:07 10.35189 -68.39291 23410 ft 510 kts 67°
2026-05-08 00:08 10.36420 -68.35905 23414 ft 511 kts 70°
2026-05-08 00:08 10.37610 -68.32522 23265 ft 498 kts 69°
2026-05-08 00:08 10.38919 -68.29392 22630 ft 463 kts 64°
2026-05-08 00:08 10.40300 -68.26551 22046 ft 435 kts 62°
2026-05-08 00:09 10.41569 -68.23819 21495 ft 422 kts 65°
2026-05-08 00:09 10.42683 -68.21084 20949 ft 418 kts 67°
2026-05-08 00:09 10.43791 -68.18363 20402 ft 416 kts 65°
2026-05-08 00:09 10.44959 -68.15720 19863 ft 413 kts 64°
2026-05-08 00:10 10.46144 -68.13093 19318 ft 407 kts 65°
2026-05-08 00:10 10.47271 -68.10478 18798 ft 402 kts 65°
2026-05-08 00:10 10.48363 -68.07841 18250 ft 396 kts 68°
2026-05-08 00:10 10.49106 -68.05211 17705 ft 391 kts 75°
2026-05-08 00:11 10.49788 -68.02506 17185 ft 388 kts 75°
2026-05-08 00:11 10.50466 -67.99915 16677 ft 381 kts 74°
2026-05-08 00:11 10.51154 -67.97335 16176 ft 375 kts 74°
2026-05-08 00:11 10.51830 -67.94754 15678 ft 372 kts 75°
2026-05-08 00:12 10.52475 -67.92257 15196 ft 368 kts 75°
2026-05-08 00:12 10.53126 -67.89758 14713 ft 364 kts 75°
2026-05-08 00:12 10.53773 -67.87288 14230 ft 360 kts 75°
2026-05-08 00:12 10.54424 -67.84842 13759 ft 356 kts 74°
2026-05-08 00:13 10.55056 -67.82420 13259 ft 354 kts 75°
2026-05-08 00:13 10.55674 -67.80000 12784 ft 353 kts 75°
2026-05-08 00:13 10.56297 -67.77590 12328 ft 351 kts 75°
2026-05-08 00:13 10.56926 -67.75192 11864 ft 350 kts 75°
2026-05-08 00:14 10.57548 -67.72810 11405 ft 349 kts 76°
2026-05-08 00:14 10.58150 -67.70490 10956 ft 328 kts 76°
2026-05-08 00:14 10.58716 -67.68314 10532 ft 309 kts 76°
2026-05-08 00:14 10.59252 -67.66259 10146 ft 293 kts 76°
2026-05-08 00:15 10.59768 -67.64280 9759 ft 287 kts 76°
2026-05-08 00:15 10.60276 -67.62333 9371 ft 284 kts 76°
2026-05-08 00:15 10.60779 -67.60395 8997 ft 283 kts 76°
2026-05-08 00:15 10.61280 -67.58465 8622 ft 282 kts 76°
2026-05-08 00:16 10.61776 -67.56564 8258 ft 281 kts 76°
2026-05-08 00:16 10.62274 -67.54648 7888 ft 280 kts 76°
2026-05-08 00:16 10.62769 -67.52734 7522 ft 279 kts 76°
2026-05-08 00:16 10.63265 -67.50823 7157 ft 279 kts 76°
2026-05-08 00:17 10.63761 -67.48913 6788 ft 278 kts 76°
2026-05-08 00:17 10.64250 -67.47030 6420 ft 271 kts 76°
2026-05-08 00:17 10.64721 -67.45211 6053 ft 260 kts 75°
2026-05-08 00:17 10.65173 -67.43468 5717 ft 250 kts 76°
2026-05-08 00:18 10.65608 -67.41787 5387 ft 243 kts 75°
2026-05-08 00:18 10.65991 -67.40134 5060 ft 237 kts 83°
2026-05-08 00:18 10.65747 -67.38514 4940 ft 228 kts 108°
2026-05-08 00:18 10.65229 -67.36975 5044 ft 233 kts 108°
2026-05-08 00:19 10.64713 -67.35398 5036 ft 236 kts 108°
2026-05-08 00:19 10.64200 -67.33847 5033 ft 234 kts 108°
2026-05-08 00:19 10.63679 -67.32272 5030 ft 238 kts 108°
2026-05-08 00:19 10.63150 -67.30682 5027 ft 237 kts 108°
2026-05-08 00:20 10.62623 -67.29096 5033 ft 237 kts 108°
2026-05-08 00:20 10.62098 -67.27513 5024 ft 235 kts 108°
2026-05-08 00:20 10.61574 -67.25934 5012 ft 235 kts 108°
2026-05-08 00:20 10.61053 -67.24363 4793 ft 232 kts 108°
2026-05-08 00:21 10.60545 -67.22836 4481 ft 225 kts 108°
2026-05-08 00:21 10.60052 -67.21349 4174 ft 220 kts 108°
2026-05-08 00:21 10.59730 -67.19852 3870 ft 215 kts 92°
2026-05-08 00:21 10.59780 -67.18347 3622 ft 212 kts 88°
2026-05-08 00:22 10.59843 -67.16865 3325 ft 206 kts 89°
2026-05-08 00:22 10.59879 -67.15434 3015 ft 199 kts 90°
2026-05-08 00:22 10.59911 -67.14061 2743 ft 190 kts 90°
2026-05-08 00:22 10.59945 -67.12749 2483 ft 181 kts 89°
2026-05-08 00:23 10.59977 -67.11494 2238 ft 173 kts 89°
2026-05-08 00:23 10.60007 -67.10360 1999 ft 150 kts 88°
2026-05-08 00:23 10.60033 -67.09324 1806 ft 145 kts 88°
2026-05-08 00:23 10.60067 -67.08320 1613 ft 142 kts 88°
2026-05-08 00:24 10.60095 -67.07332 1416 ft 135 kts 89°
2026-05-08 00:24 10.60117 -67.06390 1260 ft 130 kts 88°
2026-05-08 00:24 10.60142 -67.05497 1132 ft 129 kts 88°
2026-05-08 00:24 10.60179 -67.04572 992 ft 132 kts 88°
2026-05-08 00:25 10.60193 -67.03639 788 ft 133 kts 90°
2026-05-08 00:25 10.60207 -67.02705 585 ft 132 kts 94°
2026-05-08 00:25 10.60219 -67.01769 417 ft 134 kts 92°
2026-05-08 00:25 10.60234 -67.00835 256 ft 128 kts 91°
2026-05-08 00:26 10.60256 -67.00018 215 ft 94 kts 88°
2026-05-08 00:26 10.60271 -66.99531 198 ft 43 kts 89°
2026-05-08 00:26 10.60273 -66.99324 190 ft 29 kts 88°
2026-05-08 00:26 10.60277 -66.99200 185 ft 11 kts 86°
2026-05-08 00:27 10.60265 -66.99124 183 ft 11 kts 135°
2026-05-08 00:27 10.60203 -66.99111 183 ft 7 kts 175°
2026-05-08 00:27 10.60165 -66.99105 186 ft 4 kts 166°
2026-05-08 00:27 10.60145 -66.99100 185 ft 2 kts 166°
2026-05-08 00:28 10.60137 -66.99097 185 ft 2 kts 165°
2026-05-08 00:28 10.60110 -66.99090 193 ft 6 kts 165°
2026-05-08 00:28 10.60057 -66.99074 186 ft 10 kts 160°
2026-05-08 00:28 10.59964 -66.99051 186 ft 19 kts 165°
2026-05-08 00:29 10.59869 -66.99114 193 ft 20 kts 260°
2026-05-08 00:29 10.59834 -66.99284 207 ft 27 kts 261°
2026-05-08 00:29 10.59783 -66.99373 210 ft 10 kts 173°
2026-05-08 00:29 10.59748 -66.99363 204 ft 0 kts 162°
2026-05-08 00:30 10.59743 -66.99362 204 ft 0 kts 164°